Wind_Speed
36 34 33 32 30 28 29 26 27 28 28 29 27 24 24 26 24 20 21 20 19 21 20 19 22 21 17 15 16 18 21 23 25 27 29 32 35 37 40 43 46 49 51
41 39 35 34 33 31 31 30 29 29 30 30 29 27 26 25 24 24 22 20 19 18 19 23 26 25 21 20 19 20 21 24 27 29 31 32 34 35 37 40 44 46 49
45 42 40 36 34 34 33 32 31 33 33 33 30 30 28 28 26 25 25 18 20 21 24 28 28 25 27 23 26 26 24 25 27 27 30 34 35 36 39 41 43 45 48
48 47 43 40 38 37 34 33 32 31 31 33 32 33 32 28 28 26 23 23 25 25 28 29 25 27 26 28 30 31 29 27 28 28 29 30 33 33 36 39 41 44 46
50 50 48 44 42 39 36 33 32 33 34 35 35 34 31 28 29 29 28 27 27 25 31 27 25 30 26 32 33 33 32 31 30 30 29 27 28 33 35 37 39 40 40
51 52 51 46 45 42 37 36 37 38 38 38 36 33 32 29 30 28 27 27 29 32 31 25 29 29 31 34 36 35 35 34 33 31 29 29 30 33 36 38 39 41 42
51 52 52 49 46 45 42 42 43 43 42 38 34 32 32 30 29 27 29 31 33 33 29 29 34 31 38 38 40 38 38 36 34 30 30 31 34 37 38 40 42 44 45
53 53 53 51 47 44 43 43 42 40 38 35 33 33 33 29 28 30 32 33 32 27 34 35 33 35 42 40 41 39 38 36 32 30 31 35 38 39 41 42 43 45 48
56 54 52 52 48 45 44 41 41 41 40 38 36 36 34 31 28 28 31 33 31 33 33 35 35 43 43 42 42 40 39 34 31 32 35 38 41 43 44 46 47 49 50
57 55 54 53 50 48 46 45 44 43 42 40 40 40 38 37 37 39 39 36 29 32 37 41 43 42 46 46 42 40 39 34 33 35 37 41 43 45 47 48 49 51 53
59 58 58 55 54 51 50 49 48 47 45 45 43 41 42 42 42 39 36 36 38 39 41 42 43 48 44 39 42 41 40 35 35 37 41 45 47 48 48 48 50 53 57
57 57 56 56 56 55 55 54 52 51 49 47 46 45 45 44 44 41 39 37 38 41 43 46 48 47 43 40 43 43 39 35 38 41 45 48 50 50 49 50 54 59 62
58 57 56 57 58 58 57 56 56 53 51 49 48 47 46 44 41 41 39 37 37 41 45 44 43 42 42 42 45 43 38 39 41 44 48 51 52 50 51 54 60 63 67
63 64 61 56 58 60 59 57 57 55 54 54 53 50 47 45 44 43 41 38 38 40 42 42 40 44 43 47 46 45 40 41 43 47 51 53 51 52 55 60 63 68 69
56 58 57 56 56 59 59 58 58 59 57 54 51 49 47 46 45 43 42 37 39 43 42 42 42 43 45 48 50 44 39 44 47 49 53 52 52 55 59 63 69 70 69
52 52 51 51 51 53 56 56 54 51 48 46 47 47 47 47 46 43 43 41 39 40 42 41 43 46 49 48 49 40 45 48 48 52 52 51 54 58 63 68 70 68 71
52 53 53 51 52 53 55 52 49 47 47 47 46 46 46 45 44 43 44 44 44 45 45 46 45 47 46 46 45 46 47 48 52 50 51 52 56 61 67 69 68 70 72
53 50 52 54 53 53 53 52 51 49 47 46 45 43 41 41 41 39 42 44 45 45 46 47 49 45 46 49 48 47 49 51 49 49 52 57 59 64 68 67 70 72 74
54 56 54 56 54 53 52 51 49 47 46 45 43 41 39 36 37 38 44 44 43 46 49 49 48 49 48 46 47 50 50 47 49 51 54 58 63 68 66 68 70 72 71
52 58 57 57 56 55 53 51 50 48 47 45 43 41 40 37 35 36 41 45 49 50 50 48 48 45 45 47 49 46 46 47 51 55 57 61 66 66 66 68 70 70 58
51 53 53 58 64 59 55 54 53 51 49 47 46 44 42 41 39 37 37 40 43 43 45 44 43 43 45 45 44 44 46 49 54 57 60 64 65 64 66 68 68 58 46
51 55 55 58 63 63 60 59 56 54 52 51 49 48 47 45 43 41 41 40 40 41 41 42 43 43 44 44 44 46 49 53 56 60 63 65 64 65 67 65 55 45 42
58 57 60 61 59 61 62 62 61 61 60 57 56 55 53 50 48 47 44 42 41 41 41 42 42 43 44 44 45 48 52 57 62 64 66 64 64 66 64 57 45 41 41
58 56 59 61 55 55 56 57 59 58 59 58 57 58 58 56 54 52 49 46 44 44 42 41 44 44 45 47 48 52 55 61 64 67 66 65 65 65 60 48 45 42 43
73 62 65 62 60 56 57 57 58 56 55 57 57 57 57 57 56 55 54 52 48 46 45 44 45 46 48 50 53 56 59 64 65 67 66 66 66 61 58 49 46 45 43
83 75 78 80 71 63 64 62 62 58 56 56 57 57 55 54 55 54 54 53 50 48 48 48 48 50 52 54 56 60 63 66 68 69 67 64 62 59 55 48 48 46 46
Wind_Direction
242 245 246 250 255 259 263 265 267 273 277 283 286 286 287 290 291 292 299 290 285 300 305 309 318 323 316 310 299 290 285 285 283 279 275 273 274 274 273 272 272 272 272
243 244 246 248 252 254 260 263 265 268 274 279 283 287 287 289 292 292 295 289 292 296 301 310 315 314 316 317 308 299 286 283 280 280 280 278 274 272 274 275 274 273 273
242 244 245 246 249 252 255 259 263 265 270 274 280 286 284 287 288 291 292 287 295 296 305 310 309 306 312 314 317 315 296 288 287 282 278 275 273 276 276 276 278 279 279
242 244 245 247 248 252 253 257 258 264 268 271 277 284 284 282 282 283 287 289 291 295 307 306 300 306 309 314 315 314 310 299 298 293 281 276 275 273 277 279 279 278 277
243 245 246 247 247 250 252 255 257 259 262 269 277 279 282 280 279 279 280 285 285 302 303 294 289 307 304 312 313 312 312 304 299 297 289 282 283 288 288 287 286 283 280
244 244 247 250 250 249 251 251 254 258 262 268 271 274 279 277 279 276 276 278 288 297 295 284 297 299 303 309 313 312 310 306 303 300 292 288 288 291 295 291 286 281 279
243 244 245 247 249 249 250 253 256 259 263 263 265 272 275 275 275 275 276 276 284 291 280 287 295 294 305 308 311 313 312 306 303 297 293 294 298 299 298 294 290 288 287
241 243 245 245 248 250 252 253 257 256 257 260 264 270 274 274 276 279 277 277 281 275 281 283 286 297 305 307 311 311 310 308 302 299 299 301 302 301 299 296 294 292 290
239 242 246 245 247 250 251 250 252 253 256 262 267 269 270 272 268 269 269 273 279 276 276 283 290 296 300 306 310 309 307 305 296 296 302 302 303 303 302 298 295 294 294
239 241 244 245 247 249 249 250 251 254 257 262 267 270 275 276 274 267 278 274 272 268 279 282 286 292 300 306 309 307 304 299 296 299 302 304 304 302 300 299 297 297 298
241 243 244 245 245 247 249 251 254 256 260 263 267 269 273 275 278 278 276 282 274 275 279 281 287 293 301 306 309 308 304 297 298 301 304 305 304 305 303 301 302 303 302
240 242 246 247 247 247 249 251 255 259 262 265 268 271 275 277 278 277 277 279 278 277 283 286 288 291 299 302 310 308 301 298 298 302 306 307 308 306 306 307 307 306 307
236 243 246 248 248 249 251 253 256 259 263 266 269 272 275 276 274 278 276 278 279 281 280 286 289 292 297 301 307 307 298 300 301 302 305 309 310 308 308 309 310 310 309
241 241 245 250 250 250 252 255 257 259 262 266 269 271 271 272 273 273 276 276 277 279 278 279 285 291 291 297 308 305 295 300 300 301 306 310 308 309 310 313 313 312 313
242 240 243 248 251 251 252 256 258 260 264 266 265 266 268 271 271 273 275 272 273 276 276 277 286 290 290 298 305 302 295 302 302 304 308 308 308 310 314 315 316 316 315
241 238 240 244 249 251 253 256 258 260 261 260 262 266 268 270 271 271 269 267 267 266 273 281 287 288 289 293 305 298 300 302 303 306 307 307 311 315 317 317 318 316 317
244 241 239 242 248 252 253 253 254 257 260 262 265 267 270 272 269 269 267 267 267 269 276 283 283 285 294 300 299 296 297 300 303 306 306 310 314 318 319 319 319 319 320
244 244 241 243 247 250 252 252 254 257 260 262 264 268 270 269 267 266 266 269 269 273 280 279 284 291 294 295 293 293 297 301 304 305 310 314 316 319 319 319 320 320 323
248 243 243 245 248 249 251 252 253 256 258 262 263 265 270 270 267 262 262 270 272 270 275 281 288 292 293 290 290 294 298 301 305 309 312 315 319 319 321 321 321 322 325
248 249 245 247 247 250 250 251 253 255 257 260 262 266 268 271 273 271 267 268 270 274 279 284 287 288 287 287 290 295 298 304 308 310 313 318 319 321 322 322 323 324 325
254 248 248 253 248 247 250 251 253 257 258 259 260 264 267 273 275 277 275 273 276 279 281 283 285 285 286 287 292 296 302 306 307 311 316 319 320 321 323 324 325 324 326
242 247 254 253 248 244 248 251 253 256 258 259 261 263 266 270 274 276 278 279 281 284 284 283 283 284 285 289 295 301 304 305 307 313 318 320 321 322 324 326 325 322 324
240 245 248 249 246 245 248 251 253 254 256 259 262 263 266 269 273 275 278 281 282 283 283 282 281 282 285 291 297 301 304 307 310 315 318 320 320 323 325 326 323 323 323
239 234 242 243 243 244 247 250 252 253 254 256 260 263 266 269 271 274 277 279 281 282 281 280 280 284 289 294 298 300 304 307 311 316 317 318 321 323 326 324 323 321 318
230 230 235 239 243 240 245 247 249 252 256 258 259 263 266 269 271 273 275 277 278 280 279 279 282 286 290 295 298 300 304 306 312 314 314 319 320 323 324 319 317 316 316
226 231 239 243 242 247 247 250 252 252 255 258 259 262 264 267 269 271 272 274 276 277 279 280 284 288 291 294 296 300 304 309 311 312 315 317 320 320 319 317 316 316 318
Height
10873 10875 10876 10877 10879 10881 10883 10884 10885 10886 10887 10888 10889 10890 10890 10890 10890 10890 10889 10889 10889 10889 10888 10888 10887 10885 10883 10881 10879 10876 10874 10872 10870 10868 10866 10865 10863 10861 10859 10857 10855 10853 10852
10868 10870 10872 10873 10875 10877 10879 10880 10882 10882 10883 10884 10886 10886 10887 10887 10886 10886 10886 10886 10885 10884 10884 10883 10882 10881 10880 10878 10875 10873 10870 10868 10866 10864 10862 10860 10858 10856 10854 10851 10849 10847 10845
10862 10864 10866 10869 10871 10872 10874 10876 10878 10879 10880 10880 10881 10882 10883 10883 10883 10882 10882 10881 10882 10881 10880 10879 10878 10877 10875 10874 10872 10869 10866 10864 10861 10859 10856 10853 10852 10849 10847 10844 10842 10839 10836
10856 10859 10861 10863 10865 10867 10870 10871 10873 10875 10875 10876 10877 10877 10878 10879 10879 10879 10878 10878 10877 10877 10876 10875 10873 10872 10871 10869 10867 10864 10862 10859 10856 10853 10851 10848 10845 10844 10841 10839 10836 10833 10829
10850 10853 10855 10858 10860 10862 10864 10866 10868 10870 10871 10872 10873 10873 10873 10874 10874 10874 10874 10873 10872 10872 10871 10870 10869 10868 10867 10865 10862 10859 10856 10853 10850 10847 10844 10842 10840 10837 10834 10831 10828 10824 10820
10844 10847 10849 10852 10853 10857 10859 10861 10863 10865 10866 10867 10868 10868 10868 10869 10869 10869 10869 10869 10868 10867 10866 10864 10863 10862 10861 10859 10857 10854 10850 10846 10843 10840 10838 10836 10834 10831 10828 10824 10820 10815 10812
10838 10840 10843 10845 10849 10852 10854 10856 10858 10859 10860 10861 10862 10863 10863 10863 10864 10864 10865 10864 10863 10862 10861 10859 10858 10857 10855 10853 10851 10847 10844 10839 10836 10833 10831 10829 10826 10823 10819 10815 10810 10806 10802
10830 10833 10837 10840 10843 10846 10848 10850 10852 10852 10854 10855 10856 10857 10858 10858 10859 10859 10859 10859 10858 10857 10856 10855 10854 10852 10850 10848 10845 10841 10837 10833 10829 10826 10824 10822 10818 10814 10810 10806 10802 10797 10793
10822 10827 10830 10834 10837 10839 10842 10844 10845 10846 10847 10849 10850 10851 10852 10853 10854 10853 10853 10853 10853 10851 10850 10849 10848 10846 10845 10843 10840 10835 10831 10827 10824 10820 10818 10814 10810 10806 10802 10798 10793 10788 10783
10815 10819 10823 10826 10829 10832 10835 10837 10838 10840 10842 10843 10844 10845 10847 10848 10848 10847 10848 10848 10848 10846 10844 10843 10842 10840 10839 10837 10833 10829 10824 10821 10818 10815 10811 10808 10804 10799 10794 10789 10783 10778 10773
10806 10811 10815 10820 10822 10825 10828 10830 10832 10834 10836 10836 10838 10839 10840 10841 10841 10842 10842 10842 10842 10840 10839 10837 10836 10834 10833 10830 10826 10822 10817 10814 10811 10808 10804 10800 10795 10790 10785 10780 10774 10768 10761
10797 10802 10807 10812 10815 10817 10820 10823 10825 10827 10829 10830 10831 10833 10834 10835 10835 10835 10836 10836 10836 10834 10833 10831 10829 10827 10826 10824 10820 10815 10810 10808 10804 10800 10797 10792 10787 10781 10775 10770 10763 10755 10749
10789 10792 10797 10802 10807 10810 10813 10816 10818 10820 10823 10823 10825 10826 10827 10828 10828 10828 10829 10829 10828 10826 10825 10823 10822 10820 10818 10816 10813 10808 10804 10800 10796 10793 10788 10783 10778 10772 10766 10759 10751 10744 10735
10779 10784 10789 10794 10799 10803 10805 10808 10810 10814 10815 10817 10817 10819 10819 10820 10820 10821 10821 10821 10820 10818 10817 10815 10814 10812 10811 10809 10806 10802 10797 10792 10790 10785 10780 10774 10769 10763 10757 10747 10740 10731 10723
10769 10774 10779 10785 10791 10794 10798 10801 10802 10805 10808 10810 10810 10810 10811 10811 10812 10812 10812 10812 10812 10810 10809 10808 10807 10805 10803 10800 10798 10794 10790 10785 10781 10777 10771 10766 10760 10753 10746 10737 10728 10718 10708
10759 10764 10769 10775 10781 10785 10789 10792 10794 10797 10799 10801 10801 10802 10802 10802 10802 10803 10803 10803 10803 10801 10801 10800 10799 10797 10794 10792 10790 10786 10782 10778 10772 10768 10763 10757 10751 10744 10735 10726 10716 10707 10696
10751 10755 10760 10765 10771 10776 10780 10784 10786 10789 10791 10792 10793 10794 10794 10794 10793 10794 10794 10794 10794 10794 10793 10793 10791 10789 10785 10783 10781 10777 10773 10770 10766 10760 10753 10749 10742 10735 10724 10714 10704 10694 10684
10745 10748 10752 10756 10762 10766 10770 10775 10778 10781 10783 10784 10785 10786 10786 10785 10785 10785 10785 10786 10786 10786 10785 10783 10782 10780 10777 10775 10772 10769 10765 10761 10756 10752 10746 10738 10733 10725 10715 10704 10694 10683 10673
10736 10739 10742 10748 10752 10757 10761 10766 10769 10772 10774 10776 10778 10778 10778 10777 10777 10777 10778 10778 10777 10777 10776 10774 10773 10771 10769 10765 10763 10760 10757 10752 10747 10742 10737 10731 10722 10714 10705 10695 10684 10673 10663
10726 10730 10734 10738 10742 10748 10753 10757 10760 10763 10765 10767 10769 10769 10771 10770 10769 10769 10770 10769 10769 10768 10767 10765 10764 10762 10760 10757 10755 10752 10749 10744 10738 10733 10727 10722 10714 10704 10694 10685 10675 10664 10653
10717 10720 10724 10727 10733 10738 10744 10748 10751 10754 10757 10758 10759 10760 10762 10762 10761 10761 10761 10760 10760 10759 10758 10757 10755 10753 10751 10748 10746 10744 10739 10735 10729 10723 10718 10712 10705 10695 10686 10676 10664 10654 10648
10705 10709 10713 10715 10720 10726 10733 10738 10741 10745 10747 10748 10749 10751 10751 10752 10752 10752 10752 10752 10751 10750 10749 10747 10746 10744 10742 10740 10737 10733 10729 10725 10721 10715 10708 10702 10694 10686 10677 10668 10657 10648 10642
10698 10700 10699 10704 10710 10716 10722 10726 10730 10733 10735 10737 10738 10740 10741 10742 10743 10743 10743 10743 10742 10741 10740 10739 10737 10734 10733 10731 10728 10724 10719 10714 10708 10703 10698 10692 10684 10677 10668 10660 10652 10645 10639
10688 10689 10690 10695 10699 10703 10709 10713 10717 10721 10722 10725 10728 10728 10729 10732 10733 10733 10734 10734 10733 10732 10731 10730 10728 10726 10723 10720 10718 10714 10710 10705 10699 10692 10686 10682 10674 10667 10659 10653 10647 10640 10634
10671 10675 10676 10683 10687 10690 10695 10700 10704 10709 10711 10713 10716 10718 10720 10721 10723 10723 10723 10723 10723 10722 10721 10720 10718 10716 10714 10710 10707 10703 10700 10694 10689 10683 10677 10670 10663 10657 10650 10645 10640 10634 10628
10659 10663 10668 10675 10676 10680 10684 10689 10695 10699 10699 10700 10704 10706 10709 10710 10711 10712 10712 10712 10712 10711 10711 10709 10707 10705 10703 10700 10697 10693 10689 10683 10677 10671 10666 10662 10657 10648 10641 10635 10630 10627 10621